Time,TemperatureF,DewpointF,PressureIn,WindDirection,WindDirectionDegrees,WindSpeedMPH,WindSpeedGustMPH,Humidity,HourlyPrecipIn,Conditions,Clouds,dailyrainin,SoftwareType,DateUTC
2013-10-25 00:38:00,32.1,26.9,29.93,West,270,0.0,0.0,81,0.00,,,0.00,WUHU21623XXSP,2013-10-25 04:38:00,
2013-10-25 01:38:00,30.7,25.8,29.95,West,270,0.0,0.0,82,0.00,,,0.00,WUHU21623XXSP,2013-10-25 05:38:00,
2013-10-25 02:38:00,29.4,25.1,29.96,West,270,0.0,0.0,84,0.00,,,0.00,WUHU21623XXSP,2013-10-25 06:38:00,
2013-10-25 03:38:00,29.2,25.5,29.97,WSW,248,0.0,0.0,86,0.00,,,0.00,WUHU21623XXSP,2013-10-25 07:38:00,
2013-10-25 04:38:00,28.3,24.6,29.98,WSW,248,0.0,0.0,86,0.00,,,0.00,WUHU21623XXSP,2013-10-25 08:38:00,
2013-10-25 05:38:00,28.0,24.6,29.99,WSW,248,0.0,0.0,87,0.00,,,0.00,WUHU21623XXSP,2013-10-25 09:38:00,
2013-10-25 06:38:00,27.6,24.2,30.01,WSW,248,0.0,0.0,87,0.00,,,0.00,WUHU21623XXSP,2013-10-25 10:38:00,
2013-10-25 07:38:00,28.9,25.8,30.02,WSW,248,0.0,0.0,88,0.00,,,0.00,WUHU21623XXSP,2013-10-25 11:38:00,
2013-10-25 08:38:00,30.7,27.8,30.05,WSW,248,0.0,0.0,89,0.00,,,0.00,WUHU21623XXSP,2013-10-25 12:38:00,
2013-10-25 09:38:00,33.0,30.1,30.05,WSW,248,0.0,0.0,89,0.00,,,0.00,WUHU21623XXSP,2013-10-25 13:38:00,
2013-10-25 10:38:00,36.4,32.9,30.06,West,270,0.0,0.0,87,0.00,,,0.00,WUHU21623XXSP,2013-10-25 14:38:00,
2013-10-25 11:38:00,40.0,34.0,30.05,West,270,1.6,1.6,79,0.00,,,0.00,WUHU21623XXSP,2013-10-25 15:38:00,
2013-10-25 12:38:00,43.3,33.9,30.04,West,270,1.3,1.3,69,0.00,,,0.00,WUHU21623XXSP,2013-10-25 16:38:00,
2013-10-25 13:38:00,45.6,30.4,30.01,SW,225,3.4,3.4,55,0.00,,,0.00,WUHU21623XXSP,2013-10-25 17:38:00,
2013-10-25 14:38:00,46.9,29.2,29.99,SW,225,4.9,4.9,50,0.00,,,0.00,WUHU21623XXSP,2013-10-25 18:38:00,
2013-10-25 15:38:00,45.3,28.7,29.98,SW,225,0.0,0.0,52,0.00,,,0.00,WUHU21623XXSP,2013-10-25 19:38:00,
2013-10-25 16:38:00,44.7,29.1,29.96,WSW,248,0.0,0.0,54,0.00,,,0.00,WUHU21623XXSP,2013-10-25 20:38:00,
2013-10-25 17:38:00,44.0,29.3,29.93,South,180,8.7,8.7,56,0.00,,,0.00,WUHU21623XXSP,2013-10-25 21:38:00,
2013-10-25 18:38:00,41.7,28.1,29.92,SSW,203,4.5,4.5,58,0.00,,,0.00,WUHU21623XXSP,2013-10-25 22:38:00,
2013-10-25 19:38:00,41.1,27.9,29.91,South,180,3.1,3.1,59,0.00,,,0.00,WUHU21623XXSP,2013-10-25 23:38:00,
2013-10-25 20:38:00,39.3,27.4,29.88,South,180,4.0,4.0,62,0.00,,,0.00,WUHU21623XXSP,2013-10-26 00:38:00,
2013-10-25 21:38:00,39.0,27.9,29.84,South,180,3.4,3.4,64,0.00,,,0.00,WUHU21623XXSP,2013-10-26 01:38:00,
2013-10-25 22:38:00,39.3,27.8,29.82,SSW,203,6.5,6.5,63,0.00,,,0.00,WUHU21623XXSP,2013-10-26 02:38:00,
2013-10-25 23:38:00,39.9,28.0,29.78,SSW,203,6.7,6.7,62,0.00,,,0.00,WUHU21623XXSP,2013-10-26 03:38:00,